This is the latest recevied weather packets stored in our database for station/object AK4NG. If no packets are shown the sender has not sent any weather packets the latest 10 day(s).
| Time | Temp. | Humidity | Pressure | Rain* | Wind** | Luminosity | Snow |
|---|---|---|---|---|---|---|---|
| 1778023909 | 26.11° C | 54% | 1014 hPa | 0 mm | - | 82 W/m² | - |
| 1778023606 | 25.56° C | 54% | 1013.8 hPa | 0 mm | - | 102 W/m² | - |
| 1778023304 | 26.11° C | 55% | 1013.9 hPa | 0 mm | - | 101 W/m² | - |
| 1778023000 | 26.11° C | 53% | 1013.9 hPa | 0 mm | - | 86 W/m² | - |
| 1778022699 | 26.11° C | 53% | 1014 hPa | 0 mm | - | 82 W/m² | - |
| 1778022397 | 26.11° C | 53% | 1013.9 hPa | 0 mm | - | 110 W/m² | - |
| 1778022093 | 26.11° C | 53% | 1013.7 hPa | 0 mm | - | 126 W/m² | - |
| 1778021789 | 26.67° C | 51% | 1013.8 hPa | 0 mm | - | 143 W/m² | - |
| 1778021485 | 27.22° C | 50% | 1013.9 hPa | 0 mm | - | 199 W/m² | - |
| 1778021182 | 26.67° C | 52% | 1014 hPa | 0 mm | - | 252 W/m² | - |
| 1778020880 | 26.67° C | 52% | 1014.1 hPa | 0 mm | - | 287 W/m² | - |
| 1778020577 | 26.67° C | 53% | 1014 hPa | 0 mm | - | 322 W/m² | - |
| 1778020273 | 26.67° C | 53% | 1014 hPa | 0 mm | - | 298 W/m² | - |
| 1778019969 | 26.67° C | 51% | 1014 hPa | 0 mm | - | 247 W/m² | - |
| 1778019665 | 27.22° C | 51% | 1013.8 hPa | 0 mm | - | 180 W/m² | - |
| 1778019363 | 27.78° C | 48% | 1013.9 hPa | 0 mm | - | 236 W/m² | - |
| 1778019059 | 27.22° C | 50% | 1013.8 hPa | 0 mm | - | 332 W/m² | - |
| 1778018756 | 26.67° C | 49% | 1013.9 hPa | 0 mm | - | 365 W/m² | - |
| 1778018454 | 27.22° C | 51% | 1014 hPa | 0 mm | - | 194 W/m² | - |
| 1778018152 | 26.67° C | 50% | 1014 hPa | 0 mm | - | 398 W/m² | - |
| 1778017850 | 26.67° C | 49% | 1014 hPa | 0 mm | - | 402 W/m² | - |
| 1778017548 | 26.11° C | 52% | 1014 hPa | 0 mm | - | 183 W/m² | - |
| 1778017244 | 26.11° C | 51% | 1014.2 hPa | 0 mm | - | 173 W/m² | - |
| 1778016942 | 26.67° C | 52% | 1014 hPa | 0 mm | - | 164 W/m² | - |
| 1778016638 | 26.67° C | 50% | 1013.6 hPa | 0 mm | - | 219 W/m² | - |
* Rain latest hour (hover to see other rain measurements)
** Current wind speed in m/s (hover to see current wind gust speed)